Location: Newark
(34.1333°N, 7.9667°W)
Time: 11:56:02
(UTC+00:00)

ISS - Pass Details

Date: 02 October 2021
Orbit: 417 x 423 km, 51.6° (Epoch: 18 October)

Event Time Altitude Azimuth Distance (km) Brightness Sun altitude
Rises 19:04:35 0° 331° (NNW) 2,363 0.5 -11.2°
Reaches altitude 10° 19:08:27 10° 16° (NNE) 1,498 -1.1 -12.0°
Maximum altitude 19:09:00 10° 25° (NNE) 1,479 -1.2 -12.1°
Drops below altitude 10° 19:09:34 10° 35° (NE) 1,498 -1.3 -12.2°
Enters shadow 19:10:00 - 42° (NE) 1,536 -1.3 -12.3°
